Year,Month,Day,Hour,Minute,Value (Times are PST for temperature in C)
2008,05,19,00,00,10.30
2008,05,19,00,01,10.30
2008,05,19,00,02,10.40
2008,05,19,00,03,10.40
2008,05,19,00,04,10.40
2008,05,19,00,05,10.40
2008,05,19,00,06,10.40
2008,05,19,00,07,10.40
2008,05,19,00,08,10.40
2008,05,19,00,09,10.40
2008,05,19,00,10,10.40
2008,05,19,00,11,10.40
2008,05,19,00,12,10.40
2008,05,19,00,13,10.50
2008,05,19,00,14,10.50
2008,05,19,00,15,10.40
2008,05,19,00,16,10.40
2008,05,19,00,17,10.40
2008,05,19,00,18,10.40
2008,05,19,00,19,10.40
2008,05,19,00,20,10.60
2008,05,19,00,21,10.60
2008,05,19,00,22,10.60
2008,05,19,00,23,10.60
2008,05,19,00,24,10.70
2008,05,19,00,25,10.70
2008,05,19,00,26,10.70
2008,05,19,00,27,10.80
2008,05,19,00,28,10.90
2008,05,19,00,29,10.90
2008,05,19,00,30,10.90
2008,05,19,00,31,10.90
2008,05,19,00,32,11.00
2008,05,19,00,33,11.10
2008,05,19,00,34,11.10
2008,05,19,00,35,11.10
2008,05,19,00,36,11.10
2008,05,19,00,37,11.20
2008,05,19,00,38,11.20
2008,05,19,00,39,11.20
2008,05,19,00,40,11.20
2008,05,19,00,41,11.20
2008,05,19,00,42,11.20
2008,05,19,00,43,11.20
2008,05,19,00,44,11.20
2008,05,19,00,45,11.20
2008,05,19,00,46,11.20
2008,05,19,00,47,11.20
2008,05,19,00,48,11.20
2008,05,19,00,49,11.10
2008,05,19,00,50,11.10
2008,05,19,00,51,11.10
2008,05,19,00,52,11.00
2008,05,19,00,53,10.90
2008,05,19,00,54,10.90
2008,05,19,00,55,10.90
2008,05,19,00,56,10.80
2008,05,19,00,57,10.60
2008,05,19,00,58,10.60
2008,05,19,00,59,10.40
2008,05,19,01,00,10.40
2008,05,19,01,01,10.30
2008,05,19,01,02,10.30
2008,05,19,01,03,10.20
2008,05,19,01,04,10.20
2008,05,19,01,05,10.20
2008,05,19,01,06,10.20
2008,05,19,01,07,10.10
2008,05,19,01,08,10.10
2008,05,19,01,09,10.10
2008,05,19,01,10,10.10
2008,05,19,01,11,10.10
2008,05,19,01,12,10.10
2008,05,19,01,13,10.20
2008,05,19,01,14,10.20
2008,05,19,01,15,10.20
2008,05,19,01,16,10.30
2008,05,19,01,17,10.30
2008,05,19,01,18,10.40
2008,05,19,01,19,10.40
2008,05,19,01,20,10.40
2008,05,19,01,21,10.40
2008,05,19,01,22,10.50
2008,05,19,01,23,10.60
2008,05,19,01,24,10.60
2008,05,19,01,25,10.60
2008,05,19,01,26,10.60
2008,05,19,01,27,10.60
2008,05,19,01,28,10.60
2008,05,19,01,29,10.60
2008,05,19,01,30,10.70
2008,05,19,01,31,10.70
2008,05,19,01,32,10.70
2008,05,19,01,33,10.80
2008,05,19,01,34,10.80
2008,05,19,01,35,10.70
2008,05,19,01,36,10.70
2008,05,19,01,37,10.70
2008,05,19,01,38,10.70
2008,05,19,01,39,10.70
2008,05,19,01,40,10.70
2008,05,19,01,41,10.70
2008,05,19,01,42,10.60
2008,05,19,01,43,10.60
2008,05,19,01,44,10.60
2008,05,19,01,45,10.60
2008,05,19,01,46,10.40
2008,05,19,01,47,10.40
2008,05,19,01,48,10.40
2008,05,19,01,49,10.40
2008,05,19,01,50,10.40
2008,05,19,01,51,10.30
2008,05,19,01,52,10.30
2008,05,19,01,53,10.30
2008,05,19,01,54,10.20
2008,05,19,01,55,10.20
2008,05,19,01,56,10.20
2008,05,19,01,57,10.20
2008,05,19,01,58,10.20
2008,05,19,01,59,10.20
2008,05,19,02,00,10.30
2008,05,19,02,01,10.40
2008,05,19,02,02,10.40
2008,05,19,02,03,10.50
2008,05,19,02,04,10.60
2008,05,19,02,05,10.60
2008,05,19,02,06,10.60
2008,05,19,02,07,10.60
2008,05,19,02,08,10.70
2008,05,19,02,09,10.70
2008,05,19,02,10,10.70
2008,05,19,02,11,10.70
2008,05,19,02,12,10.80
2008,05,19,02,13,10.80
2008,05,19,02,14,10.90
2008,05,19,02,15,10.90
2008,05,19,02,16,10.90
2008,05,19,02,17,10.90
2008,05,19,02,18,10.90
2008,05,19,02,19,10.90
2008,05,19,02,20,10.90
2008,05,19,02,21,10.90
2008,05,19,02,22,10.90
2008,05,19,02,23,11.00
2008,05,19,02,24,11.10
2008,05,19,02,25,10.90
2008,05,19,02,26,11.00
2008,05,19,02,27,11.10
2008,05,19,02,28,11.10
2008,05,19,02,29,11.10
2008,05,19,02,30,11.10
2008,05,19,02,31,11.10
2008,05,19,02,32,11.10
2008,05,19,02,33,11.20
2008,05,19,02,34,11.20
2008,05,19,02,35,11.20
2008,05,19,02,36,11.20
2008,05,19,02,37,11.20
2008,05,19,02,38,11.20
2008,05,19,02,39,11.30
2008,05,19,02,40,11.30
2008,05,19,02,41,11.30
2008,05,19,02,42,11.30
2008,05,19,02,43,11.30
2008,05,19,02,44,11.30
2008,05,19,02,45,11.30
2008,05,19,02,46,11.30
2008,05,19,02,47,11.30
2008,05,19,02,48,11.30
2008,05,19,02,49,11.30
2008,05,19,02,50,11.40
2008,05,19,02,51,11.40
2008,05,19,02,52,11.40
2008,05,19,02,53,11.40
2008,05,19,02,54,11.40
2008,05,19,02,55,11.40
2008,05,19,02,56,11.40
2008,05,19,02,57,11.40
2008,05,19,02,58,11.40
2008,05,19,02,59,11.40
2008,05,19,03,00,11.40
2008,05,19,03,01,11.40
2008,05,19,03,02,11.40
2008,05,19,03,03,11.40
2008,05,19,03,04,11.40
2008,05,19,03,05,11.40
2008,05,19,03,06,11.40
2008,05,19,03,07,11.40
2008,05,19,03,08,11.40
2008,05,19,03,09,11.40
2008,05,19,03,10,11.30
2008,05,19,03,11,11.30
2008,05,19,03,12,11.30
2008,05,19,03,13,11.30
2008,05,19,03,14,11.30
2008,05,19,03,15,11.30
2008,05,19,03,16,11.30
2008,05,19,03,17,11.30
2008,05,19,03,18,11.30
2008,05,19,03,19,11.40
2008,05,19,03,20,11.40
2008,05,19,03,21,11.40
2008,05,19,03,22,11.40
2008,05,19,03,23,11.30
2008,05,19,03,24,11.30
2008,05,19,03,25,11.30
2008,05,19,03,26,11.30
2008,05,19,03,27,11.40
2008,05,19,03,28,11.40
2008,05,19,03,29,11.40
2008,05,19,03,30,11.40
2008,05,19,03,31,11.40
2008,05,19,03,32,11.40
2008,05,19,03,33,11.40
2008,05,19,03,34,11.40
2008,05,19,03,35,11.40
2008,05,19,03,36,11.40
2008,05,19,03,37,11.40
2008,05,19,03,38,11.40
2008,05,19,03,39,11.40
2008,05,19,03,40,11.40
2008,05,19,03,41,11.40
2008,05,19,03,42,11.40
2008,05,19,03,43,11.40
2008,05,19,03,44,11.40
2008,05,19,03,45,11.50
2008,05,19,03,46,11.60
2008,05,19,03,47,11.60
2008,05,19,03,48,11.60
2008,05,19,03,49,11.60
2008,05,19,03,50,11.60
2008,05,19,03,51,11.60
2008,05,19,03,52,11.60
2008,05,19,03,53,11.60
2008,05,19,03,54,11.60
2008,05,19,03,55,11.60
2008,05,19,03,56,11.60
2008,05,19,03,57,11.60
2008,05,19,03,58,11.60
2008,05,19,03,59,11.60
2008,05,19,04,00,11.60
2008,05,19,04,01,11.60
2008,05,19,04,02,11.60
2008,05,19,04,03,11.60
2008,05,19,04,04,11.60
2008,05,19,04,05,11.60
2008,05,19,04,06,11.60
2008,05,19,04,07,11.60
2008,05,19,04,08,11.60
2008,05,19,04,09,11.60
2008,05,19,04,10,11.60
2008,05,19,04,11,11.60
2008,05,19,04,12,11.50
2008,05,19,04,13,11.40
2008,05,19,04,14,11.30
2008,05,19,04,15,11.10
2008,05,19,04,16,11.00
2008,05,19,04,17,10.90
2008,05,19,04,18,10.90
2008,05,19,04,19,10.80
2008,05,19,04,20,10.80
2008,05,19,04,21,10.70
2008,05,19,04,22,10.70
2008,05,19,04,23,10.60
2008,05,19,04,24,10.50
2008,05,19,04,25,10.40
2008,05,19,04,26,10.40
2008,05,19,04,27,10.30
2008,05,19,04,28,10.30
2008,05,19,04,29,10.30
2008,05,19,04,30,10.20
2008,05,19,04,31,10.20
2008,05,19,04,32,10.10
2008,05,19,04,33,10.10
2008,05,19,04,34,10.10
2008,05,19,04,35,10.10
2008,05,19,04,36,10.10
2008,05,19,04,37,10.10
2008,05,19,04,38,10.00
2008,05,19,04,39,9.90
2008,05,19,04,40,9.90
2008,05,19,04,41,9.90
2008,05,19,04,42,9.90
2008,05,19,04,43,9.90
2008,05,19,04,44,9.90
2008,05,19,04,45,9.90
2008,05,19,04,46,10.00
2008,05,19,04,47,10.10
2008,05,19,04,48,10.10
2008,05,19,04,49,10.10
2008,05,19,04,50,10.00
2008,05,19,04,51,9.90
2008,05,19,04,52,9.90
2008,05,19,04,53,9.90
2008,05,19,04,54,9.90
2008,05,19,04,55,9.90
2008,05,19,04,56,9.90
2008,05,19,04,57,9.90
2008,05,19,04,58,9.90
2008,05,19,04,59,9.90
2008,05,19,05,00,9.90
2008,05,19,05,01,9.90
2008,05,19,05,02,9.90
2008,05,19,05,03,9.90
2008,05,19,05,04,10.00
2008,05,19,05,05,10.00
2008,05,19,05,06,9.90
2008,05,19,05,07,9.90
2008,05,19,05,08,9.90
2008,05,19,05,09,9.90
2008,05,19,05,10,9.90
2008,05,19,05,11,9.90
2008,05,19,05,12,9.90
2008,05,19,05,13,9.90
2008,05,19,05,14,9.90
2008,05,19,05,15,9.80
2008,05,19,05,16,9.80
2008,05,19,05,17,9.80
2008,05,19,05,18,9.80
2008,05,19,05,19,9.80
2008,05,19,05,20,9.80
2008,05,19,05,21,9.80
2008,05,19,05,22,9.80
2008,05,19,05,23,9.80
2008,05,19,05,24,9.80
2008,05,19,05,25,9.90
2008,05,19,05,26,9.90
2008,05,19,05,27,9.90
2008,05,19,05,28,9.90
2008,05,19,05,29,9.90
2008,05,19,05,30,9.90
2008,05,19,05,31,9.90
2008,05,19,05,32,9.90
2008,05,19,05,33,9.90
2008,05,19,05,34,9.90
2008,05,19,05,35,10.10
2008,05,19,05,36,10.10
2008,05,19,05,37,10.10
2008,05,19,05,38,10.10
2008,05,19,05,39,10.10
2008,05,19,05,40,10.10
2008,05,19,05,41,10.10
2008,05,19,05,42,10.00
2008,05,19,05,43,9.90
2008,05,19,05,44,9.90
2008,05,19,05,45,9.90
2008,05,19,05,46,9.80
2008,05,19,05,47,9.80
2008,05,19,05,48,9.80
2008,05,19,05,49,9.80
2008,05,19,05,50,9.80
2008,05,19,05,51,9.90
2008,05,19,05,52,9.90
2008,05,19,05,53,9.90
2008,05,19,05,54,9.90
2008,05,19,05,55,9.90
2008,05,19,05,56,9.80
2008,05,19,05,57,9.80
2008,05,19,05,58,9.70
2008,05,19,05,59,9.70
2008,05,19,06,00,9.70
2008,05,19,06,01,9.70
2008,05,19,06,02,9.60
2008,05,19,06,03,9.60
2008,05,19,06,04,9.60
2008,05,19,06,05,9.70
2008,05,19,06,06,9.70
2008,05,19,06,07,9.70
2008,05,19,06,08,9.70
2008,05,19,06,09,9.70
2008,05,19,06,10,9.80
2008,05,19,06,11,9.80
2008,05,19,06,12,9.80
2008,05,19,06,13,9.80
2008,05,19,06,14,9.80
2008,05,19,06,15,9.80
2008,05,19,06,16,9.90
2008,05,19,06,17,9.90
2008,05,19,06,18,9.90
2008,05,19,06,19,9.90
2008,05,19,06,20,9.90
2008,05,19,06,21,9.90
2008,05,19,06,22,9.80
2008,05,19,06,23,9.80
2008,05,19,06,24,9.80
2008,05,19,06,25,9.80
2008,05,19,06,26,9.80
2008,05,19,06,27,9.80
2008,05,19,06,28,9.80
2008,05,19,06,29,9.80
2008,05,19,06,30,9.80
2008,05,19,06,31,9.80
2008,05,19,06,32,9.80
2008,05,19,06,33,9.80
2008,05,19,06,34,9.90
2008,05,19,06,35,9.90
2008,05,19,06,36,9.90
2008,05,19,06,37,9.90
2008,05,19,06,38,9.90
2008,05,19,06,39,9.90
2008,05,19,06,40,10.00
2008,05,19,06,41,10.10
2008,05,19,06,42,10.10
2008,05,19,06,43,10.10
2008,05,19,06,44,10.10
2008,05,19,06,45,10.10
2008,05,19,06,46,10.10
2008,05,19,06,47,10.10
2008,05,19,06,48,10.10
2008,05,19,06,49,10.10
2008,05,19,06,50,10.10
2008,05,19,06,51,10.10
2008,05,19,06,52,10.10
2008,05,19,06,53,10.10
2008,05,19,06,54,10.10
2008,05,19,06,55,10.10
2008,05,19,06,56,10.10
2008,05,19,06,57,10.10
2008,05,19,06,58,10.10
2008,05,19,06,59,10.10
2008,05,19,07,00,10.20
2008,05,19,07,01,10.20
2008,05,19,07,02,10.20
2008,05,19,07,03,10.20
2008,05,19,07,04,10.20
2008,05,19,07,05,10.20
2008,05,19,07,06,10.20
2008,05,19,07,07,10.20
2008,05,19,07,08,10.30
2008,05,19,07,09,10.30
2008,05,19,07,10,10.30
2008,05,19,07,11,10.30
2008,05,19,07,12,10.30
2008,05,19,07,13,10.40
2008,05,19,07,14,10.40
2008,05,19,07,15,10.40
2008,05,19,07,16,10.40
2008,05,19,07,17,10.40
2008,05,19,07,18,10.60
2008,05,19,07,19,10.60
2008,05,19,07,20,10.60
2008,05,19,07,21,10.60
2008,05,19,07,22,10.60
2008,05,19,07,23,10.60
2008,05,19,07,24,10.60
2008,05,19,07,25,10.60
2008,05,19,07,26,10.60
2008,05,19,07,27,10.70
2008,05,19,07,28,10.70
2008,05,19,07,29,10.70
2008,05,19,07,30,10.70
2008,05,19,07,31,10.70
2008,05,19,07,32,10.70
2008,05,19,07,33,10.80
2008,05,19,07,34,10.80
2008,05,19,07,35,10.80
2008,05,19,07,36,10.80
2008,05,19,07,37,10.90
2008,05,19,07,38,10.90
2008,05,19,07,39,10.90
2008,05,19,07,40,11.00
2008,05,19,07,41,11.10
2008,05,19,07,42,11.10
2008,05,19,07,43,11.10
2008,05,19,07,44,11.20
2008,05,19,07,45,11.20
2008,05,19,07,46,11.30
2008,05,19,07,47,11.30
2008,05,19,07,48,11.30
2008,05,19,07,49,11.30
2008,05,19,07,50,11.30
2008,05,19,07,51,11.30
2008,05,19,07,52,11.40
2008,05,19,07,53,11.50
2008,05,19,07,54,11.60
2008,05,19,07,55,11.60
2008,05,19,07,56,11.60
2008,05,19,07,57,11.60
2008,05,19,07,58,11.60
2008,05,19,07,59,11.60
2008,05,19,08,00,11.70
2008,05,19,08,01,11.70
2008,05,19,08,02,11.70
2008,05,19,08,03,11.80
2008,05,19,08,04,11.80
2008,05,19,08,05,11.80
2008,05,19,08,06,11.80
2008,05,19,08,07,11.90
2008,05,19,08,08,11.90
2008,05,19,08,09,11.90
2008,05,19,08,10,11.90
2008,05,19,08,11,11.90
2008,05,19,08,12,12.00
2008,05,19,08,13,12.10
2008,05,19,08,14,12.10
2008,05,19,08,15,12.10
2008,05,19,08,16,12.10
2008,05,19,08,17,12.10
2008,05,19,08,18,12.20
2008,05,19,08,19,12.20
2008,05,19,08,20,12.30
2008,05,19,08,21,12.30
2008,05,19,08,22,12.30
2008,05,19,08,23,12.30
2008,05,19,08,24,12.40
2008,05,19,08,25,12.40
2008,05,19,08,26,12.50
2008,05,19,08,27,12.50
2008,05,19,08,28,12.60
2008,05,19,08,29,12.60
2008,05,19,08,30,12.70
2008,05,19,08,31,12.70
2008,05,19,08,32,12.80
2008,05,19,08,33,12.80
2008,05,19,08,34,12.80
2008,05,19,08,35,12.80
2008,05,19,08,36,12.90
2008,05,19,08,37,12.90
2008,05,19,08,38,13.00
2008,05,19,08,39,13.00
2008,05,19,08,40,13.00
2008,05,19,08,41,13.10
2008,05,19,08,42,13.10
2008,05,19,08,43,13.10
2008,05,19,08,44,13.10
2008,05,19,08,45,13.10
2008,05,19,08,46,13.20
2008,05,19,08,47,13.20
2008,05,19,08,48,13.20
2008,05,19,08,49,13.20
2008,05,19,08,50,13.30
2008,05,19,08,51,13.30
2008,05,19,08,52,13.30
2008,05,19,08,53,13.30
2008,05,19,08,54,13.30
2008,05,19,08,55,13.40
2008,05,19,08,56,13.40
2008,05,19,08,57,13.50
2008,05,19,08,58,13.50
2008,05,19,08,59,13.60
2008,05,19,09,00,13.60
2008,05,19,09,01,13.70
2008,05,19,09,02,13.70
2008,05,19,09,03,13.70
2008,05,19,09,04,13.80
2008,05,19,09,05,13.80
2008,05,19,09,06,13.90
2008,05,19,09,07,14.00
2008,05,19,09,08,14.10
2008,05,19,09,09,14.20
2008,05,19,09,10,14.20
2008,05,19,09,11,14.30
2008,05,19,09,12,14.30
2008,05,19,09,13,14.40
2008,05,19,09,14,14.50
2008,05,19,09,15,14.50
2008,05,19,09,16,14.60
2008,05,19,09,17,14.60
2008,05,19,09,18,14.70
2008,05,19,09,19,14.70
2008,05,19,09,20,14.80
2008,05,19,09,21,14.80
2008,05,19,09,22,14.80
2008,05,19,09,23,14.80
2008,05,19,09,24,14.80
2008,05,19,09,25,14.80
2008,05,19,09,26,14.80
2008,05,19,09,27,14.80
2008,05,19,09,28,14.80
2008,05,19,09,29,14.90
2008,05,19,09,30,14.90
2008,05,19,09,31,14.90
2008,05,19,09,32,14.90
2008,05,19,09,33,15.00
2008,05,19,09,34,15.00
2008,05,19,09,35,15.00
2008,05,19,09,36,15.10
2008,05,19,09,37,15.10
2008,05,19,09,38,15.20
2008,05,19,09,39,15.20
2008,05,19,09,40,15.20
2008,05,19,09,41,15.30
2008,05,19,09,42,15.30
2008,05,19,09,43,15.30
2008,05,19,09,44,15.30
2008,05,19,09,45,15.30
2008,05,19,09,46,15.30
2008,05,19,09,47,15.30
2008,05,19,09,48,15.30
2008,05,19,09,49,15.30
2008,05,19,09,50,15.30
2008,05,19,09,51,15.30
2008,05,19,09,52,15.30
2008,05,19,09,53,15.30
2008,05,19,09,54,15.30
2008,05,19,09,55,15.30
2008,05,19,09,56,15.40
2008,05,19,09,57,15.50
2008,05,19,09,58,15.50
2008,05,19,09,59,15.60
2008,05,19,10,00,15.60
2008,05,19,10,01,15.70
2008,05,19,10,02,15.70
2008,05,19,10,03,15.80
2008,05,19,10,04,15.80
2008,05,19,10,05,15.80
2008,05,19,10,06,15.80
2008,05,19,10,07,15.80
2008,05,19,10,08,15.80
2008,05,19,10,09,15.80
2008,05,19,10,10,15.90
2008,05,19,10,11,15.90
2008,05,19,10,12,15.90
2008,05,19,10,13,15.90
2008,05,19,10,14,15.90
2008,05,19,10,15,15.90
2008,05,19,10,16,15.80
2008,05,19,10,17,15.80
2008,05,19,10,18,15.80
2008,05,19,10,19,15.80
2008,05,19,10,20,15.60
2008,05,19,10,21,15.40
2008,05,19,10,22,15.30
2008,05,19,10,23,15.10
2008,05,19,10,24,15.00
2008,05,19,10,25,14.90
2008,05,19,10,26,14.80
2008,05,19,10,27,14.80
2008,05,19,10,28,14.80
2008,05,19,10,29,14.80
2008,05,19,10,30,14.70
2008,05,19,10,31,14.60
2008,05,19,10,32,14.60
2008,05,19,10,33,14.60
2008,05,19,10,34,14.50
2008,05,19,10,35,14.40
2008,05,19,10,36,14.40
2008,05,19,10,37,14.40
2008,05,19,10,38,14.40
2008,05,19,10,39,14.50
2008,05,19,10,40,14.50
2008,05,19,10,41,14.50
2008,05,19,10,42,14.50
2008,05,19,10,43,14.60
2008,05,19,10,44,14.60
2008,05,19,10,45,14.70
2008,05,19,10,46,14.70
2008,05,19,10,47,14.70
2008,05,19,10,48,14.80
2008,05,19,10,49,14.80
2008,05,19,10,50,14.80
2008,05,19,10,51,14.80
2008,05,19,10,52,14.80
2008,05,19,10,53,14.80
2008,05,19,10,54,14.80
2008,05,19,10,55,14.80
2008,05,19,10,56,14.80
2008,05,19,10,57,14.80
2008,05,19,10,58,14.80
2008,05,19,10,59,14.80
2008,05,19,11,00,14.80
2008,05,19,11,01,14.90
2008,05,19,11,02,14.90
2008,05,19,11,03,15.00
2008,05,19,11,04,15.00
2008,05,19,11,05,15.00
2008,05,19,11,06,15.10
2008,05,19,11,07,15.10
2008,05,19,11,08,15.20
2008,05,19,11,09,15.20
2008,05,19,11,10,15.20
2008,05,19,11,11,15.20
2008,05,19,11,12,15.20
2008,05,19,11,13,15.10
2008,05,19,11,14,15.10
2008,05,19,11,15,15.10
2008,05,19,11,16,15.00
2008,05,19,11,17,15.00
2008,05,19,11,18,15.00
2008,05,19,11,19,15.00
2008,05,19,11,20,15.00
2008,05,19,11,21,14.90
2008,05,19,11,22,14.90
2008,05,19,11,23,14.90
2008,05,19,11,24,14.90
2008,05,19,11,25,14.70
2008,05,19,11,26,14.60
2008,05,19,11,27,14.50
2008,05,19,11,28,14.40
2008,05,19,11,29,14.10
2008,05,19,11,30,13.90
2008,05,19,11,31,13.80
2008,05,19,11,32,13.70
2008,05,19,11,33,13.70
2008,05,19,11,34,13.70
2008,05,19,11,35,13.60
2008,05,19,11,36,13.40
2008,05,19,11,37,13.20
2008,05,19,11,38,12.90
2008,05,19,11,39,12.60
2008,05,19,11,40,12.20
2008,05,19,11,41,12.00
2008,05,19,11,42,11.90
2008,05,19,11,43,11.80
2008,05,19,11,44,11.80
2008,05,19,11,45,11.80
2008,05,19,11,46,11.80
2008,05,19,11,47,11.90
2008,05,19,11,48,11.90
2008,05,19,11,49,12.00
2008,05,19,11,50,12.10
2008,05,19,11,51,12.20
2008,05,19,11,52,12.20
2008,05,19,11,53,12.40
2008,05,19,11,54,12.50
2008,05,19,11,55,12.60
2008,05,19,11,56,12.60
2008,05,19,11,57,12.70
2008,05,19,11,58,12.70
2008,05,19,11,59,12.70
2008,05,19,12,00,12.70
2008,05,19,12,01,12.80
2008,05,19,12,02,12.70
2008,05,19,12,03,12.70
2008,05,19,12,04,12.70
2008,05,19,12,05,12.70
2008,05,19,12,06,12.70
2008,05,19,12,07,12.80
2008,05,19,12,08,12.80
2008,05,19,12,09,12.90
2008,05,19,12,10,13.00
2008,05,19,12,11,13.10
2008,05,19,12,12,13.10
2008,05,19,12,13,13.10
2008,05,19,12,14,13.10
2008,05,19,12,15,13.20
2008,05,19,12,16,13.30
2008,05,19,12,17,13.30
2008,05,19,12,18,13.50
2008,05,19,12,19,13.50
2008,05,19,12,20,13.60
2008,05,19,12,21,13.70
2008,05,19,12,22,13.70
2008,05,19,12,23,13.80
2008,05,19,12,24,13.80
2008,05,19,12,25,13.80
2008,05,19,12,26,13.80
2008,05,19,12,27,13.80
2008,05,19,12,28,13.80
2008,05,19,12,29,13.80
2008,05,19,12,30,13.80
2008,05,19,12,31,13.80
2008,05,19,12,32,13.80
2008,05,19,12,33,13.80
2008,05,19,12,34,13.80
2008,05,19,12,35,13.80
2008,05,19,12,36,13.80
2008,05,19,12,37,13.80
2008,05,19,12,38,13.90
2008,05,19,12,39,13.90
2008,05,19,12,40,13.90
2008,05,19,12,41,13.80
2008,05,19,12,42,13.80
2008,05,19,12,43,13.60
2008,05,19,12,44,13.30
2008,05,19,12,45,12.90
2008,05,19,12,46,12.40
2008,05,19,12,47,12.00
2008,05,19,12,48,11.80
2008,05,19,12,49,11.70
2008,05,19,12,50,11.60
2008,05,19,12,51,11.60
2008,05,19,12,52,11.50
2008,05,19,12,53,11.40
2008,05,19,12,54,11.40
2008,05,19,12,55,11.40
2008,05,19,12,56,11.40
2008,05,19,12,57,11.40
2008,05,19,12,58,11.40
2008,05,19,12,59,11.40
2008,05,19,13,00,11.50
2008,05,19,13,01,11.60
2008,05,19,13,02,11.60
2008,05,19,13,03,11.60
2008,05,19,13,04,11.60
2008,05,19,13,05,11.70
2008,05,19,13,06,11.80
2008,05,19,13,07,11.90
2008,05,19,13,08,12.00
2008,05,19,13,09,12.10
2008,05,19,13,10,12.10
2008,05,19,13,11,12.20
2008,05,19,13,12,12.20
2008,05,19,13,13,12.30
2008,05,19,13,14,12.30
2008,05,19,13,15,12.30
2008,05,19,13,16,12.40
2008,05,19,13,17,12.50
2008,05,19,13,18,12.60
2008,05,19,13,19,12.60
2008,05,19,13,20,12.70
2008,05,19,13,21,12.70
2008,05,19,13,22,12.70
2008,05,19,13,23,12.80
2008,05,19,13,24,12.80
2008,05,19,13,25,12.80
2008,05,19,13,26,12.90
2008,05,19,13,27,13.00
2008,05,19,13,28,13.00
2008,05,19,13,29,13.10
2008,05,19,13,30,13.20
2008,05,19,13,31,13.20
2008,05,19,13,32,13.30
2008,05,19,13,33,13.30
2008,05,19,13,34,13.40
2008,05,19,13,35,13.40
2008,05,19,13,36,13.50
2008,05,19,13,37,13.50
2008,05,19,13,38,13.60
2008,05,19,13,39,13.70
2008,05,19,13,40,13.70
2008,05,19,13,41,13.70
2008,05,19,13,42,13.80
2008,05,19,13,43,13.90
2008,05,19,13,44,14.00
2008,05,19,13,45,14.10
2008,05,19,13,46,14.20
2008,05,19,13,47,14.40
2008,05,19,13,48,14.50
2008,05,19,13,49,14.60
2008,05,19,13,50,14.70
2008,05,19,13,51,14.80
2008,05,19,13,52,14.90
2008,05,19,13,53,15.00
2008,05,19,13,54,15.10
2008,05,19,13,55,15.10
2008,05,19,13,56,15.20
2008,05,19,13,57,15.30
2008,05,19,13,58,15.30
2008,05,19,13,59,15.30
2008,05,19,14,00,15.30
2008,05,19,14,01,15.20
2008,05,19,14,02,15.00
2008,05,19,14,03,14.80
2008,05,19,14,04,14.50
2008,05,19,14,05,14.10
2008,05,19,14,06,13.90
2008,05,19,14,07,13.70
2008,05,19,14,08,13.60
2008,05,19,14,09,13.40
2008,05,19,14,10,13.30
2008,05,19,14,11,13.20
2008,05,19,14,12,13.10
2008,05,19,14,13,13.10
2008,05,19,14,14,13.00
2008,05,19,14,15,12.90
2008,05,19,14,16,12.90
2008,05,19,14,17,12.80
2008,05,19,14,18,12.80
2008,05,19,14,19,12.70
2008,05,19,14,20,12.60
2008,05,19,14,21,12.50
2008,05,19,14,22,12.50
2008,05,19,14,23,12.50
2008,05,19,14,24,12.40
2008,05,19,14,25,12.30
2008,05,19,14,26,12.30
2008,05,19,14,27,12.20
2008,05,19,14,28,12.10
2008,05,19,14,29,11.90
2008,05,19,14,30,11.80
2008,05,19,14,31,11.80
2008,05,19,14,32,11.70
2008,05,19,14,33,11.60
2008,05,19,14,34,11.70
2008,05,19,14,35,11.60
2008,05,19,14,36,11.60
2008,05,19,14,37,11.60
2008,05,19,14,38,11.60
2008,05,19,14,39,11.70
2008,05,19,14,40,11.70
2008,05,19,14,41,11.80
2008,05,19,14,42,11.90
2008,05,19,14,43,12.00
2008,05,19,14,44,12.00
2008,05,19,14,45,12.10
2008,05,19,14,46,12.30
2008,05,19,14,47,12.30
2008,05,19,14,48,12.40
2008,05,19,14,49,12.50
2008,05,19,14,50,12.60
2008,05,19,14,51,12.80
2008,05,19,14,52,12.90
2008,05,19,14,53,13.10
2008,05,19,14,54,13.20
2008,05,19,14,55,13.30
2008,05,19,14,56,13.30
2008,05,19,14,57,13.30
2008,05,19,14,58,13.20
2008,05,19,14,59,13.10
2008,05,19,15,00,13.00
2008,05,19,15,01,13.00
2008,05,19,15,02,13.00
2008,05,19,15,03,12.90
2008,05,19,15,04,12.90
2008,05,19,15,05,13.00
2008,05,19,15,06,13.00
2008,05,19,15,07,13.10
2008,05,19,15,08,13.10
2008,05,19,15,09,13.00
2008,05,19,15,10,12.90
2008,05,19,15,11,12.80
2008,05,19,15,12,12.80
2008,05,19,15,13,12.80
2008,05,19,15,14,12.70
2008,05,19,15,15,12.60
2008,05,19,15,16,12.60
2008,05,19,15,17,12.60
2008,05,19,15,18,12.60
2008,05,19,15,19,12.60
2008,05,19,15,20,12.60
2008,05,19,15,21,12.70
2008,05,19,15,22,12.80
2008,05,19,15,23,12.80
2008,05,19,15,24,12.80
2008,05,19,15,25,12.80
2008,05,19,15,26,12.80
2008,05,19,15,27,12.80
2008,05,19,15,28,12.80
2008,05,19,15,29,12.80
2008,05,19,15,30,12.80
2008,05,19,15,31,12.80
2008,05,19,15,32,12.90
2008,05,19,15,33,12.90
2008,05,19,15,34,12.90
2008,05,19,15,35,12.90
2008,05,19,15,36,12.90
2008,05,19,15,37,13.00
2008,05,19,15,38,13.00
2008,05,19,15,39,13.10
2008,05,19,15,40,13.10
2008,05,19,15,41,13.20
2008,05,19,15,42,13.20
2008,05,19,15,43,13.20
2008,05,19,15,44,13.30
2008,05,19,15,45,13.30
2008,05,19,15,46,13.20
2008,05,19,15,47,13.20
2008,05,19,15,48,13.20
2008,05,19,15,49,13.30
2008,05,19,15,50,13.30
2008,05,19,15,51,13.30
2008,05,19,15,52,13.20
2008,05,19,15,53,13.10
2008,05,19,15,54,13.10
2008,05,19,15,55,13.00
2008,05,19,15,56,13.00
2008,05,19,15,57,13.00
2008,05,19,15,58,13.00
2008,05,19,15,59,13.00
2008,05,19,16,00,13.00
2008,05,19,16,01,13.00
2008,05,19,16,02,13.00
2008,05,19,16,03,13.00
2008,05,19,16,04,13.00
2008,05,19,16,05,13.10
2008,05,19,16,06,13.10
2008,05,19,16,07,13.10
2008,05,19,16,08,13.10
2008,05,19,16,09,13.00
2008,05,19,16,10,13.00
2008,05,19,16,11,13.00
2008,05,19,16,12,13.00
2008,05,19,16,13,13.10
2008,05,19,16,14,13.10
2008,05,19,16,15,13.10
2008,05,19,16,16,13.20
2008,05,19,16,17,13.20
2008,05,19,16,18,13.30
2008,05,19,16,19,13.30
2008,05,19,16,20,13.30
2008,05,19,16,21,13.30
2008,05,19,16,22,13.30
2008,05,19,16,23,13.30
2008,05,19,16,24,13.30
2008,05,19,16,25,13.30
2008,05,19,16,26,13.30
2008,05,19,16,27,13.30
2008,05,19,16,28,13.30
2008,05,19,16,29,13.30
2008,05,19,16,30,13.30
2008,05,19,16,31,13.30
2008,05,19,16,32,13.40
2008,05,19,16,33,13.40
2008,05,19,16,34,13.40
2008,05,19,16,35,13.50
2008,05,19,16,36,13.50
2008,05,19,16,37,13.50
2008,05,19,16,38,13.60
2008,05,19,16,39,13.60
2008,05,19,16,40,13.70
2008,05,19,16,41,13.70
2008,05,19,16,42,13.70
2008,05,19,16,43,13.70
2008,05,19,16,44,13.70
2008,05,19,16,45,13.70
2008,05,19,16,46,13.70
2008,05,19,16,47,13.70
2008,05,19,16,48,13.70
2008,05,19,16,49,13.80
2008,05,19,16,50,13.80
2008,05,19,16,51,13.80
2008,05,19,16,52,13.80
2008,05,19,16,53,13.90
2008,05,19,16,54,13.90
2008,05,19,16,55,14.00
2008,05,19,16,56,14.10
2008,05,19,16,57,14.10
2008,05,19,16,58,14.20
2008,05,19,16,59,14.20
2008,05,19,17,00,14.30
2008,05,19,17,01,14.40
2008,05,19,17,02,14.40
2008,05,19,17,03,14.40
2008,05,19,17,04,14.40
2008,05,19,17,05,14.50
2008,05,19,17,06,14.60
2008,05,19,17,07,14.60
2008,05,19,17,08,14.60
2008,05,19,17,09,14.60
2008,05,19,17,10,14.70
2008,05,19,17,11,14.70
2008,05,19,17,12,14.70
2008,05,19,17,13,14.80
2008,05,19,17,14,14.80
2008,05,19,17,15,14.80
2008,05,19,17,16,14.80
2008,05,19,17,17,14.80
2008,05,19,17,18,14.80
2008,05,19,17,19,14.80
2008,05,19,17,20,14.90
2008,05,19,17,21,14.90
2008,05,19,17,22,15.00
2008,05,19,17,23,15.00
2008,05,19,17,24,15.00